Massena, NY

6:42 AM EST on February 07, 2016 (GMT -0500)
Massena International-Richards

Weather History for KMSS - November, 2012

Change the Weather History Date:

Saturday, November 3, 2012

  Actual Average Record
Temperature  
Mean Temperature 39 °F 40 °F  
Max Temperature 42 °F 49 °F 75 °F (1961)
Min Temperature 36 °F 31 °F 12 °F (2002)
Degree Days  
Heating Degree Days 26 25  
Month to date heating degree days 72 74  
Since 1 July heating degree days 717 955  
Cooling Degree Days 0 0  
Month to date cooling degree days 0  
Year to date cooling degree days 363  
Moisture  
Dew Point 33 °F    
Average Humidity 78    
Maximum Humidity 85    
Minimum Humidity 70    
Precipitation  
Precipitation T in 0.12 in 1.19 in ()
Month to date precipitation 0.17 0.35  
Year to date precipitation 26.06 29.85  
Sea Level Pressure  
Sea Level Pressure 29.87 in    
Wind  
Wind Speed 11 mph (West)    
Max Wind Speed 17 mph    
Max Gust Speed 22 mph    
Visibility 10 miles    
Events Rain    
T = Trace of Precipitation, MM = Missing Value Source: NWS Daily Summary

Daily Weather History Graph

Daily Weather History Graph

Search for Another Location

Airport or City:

Trip Planner

Search our weather history database for the weather conditions in past years. The results will help you decide how hot, cold, wet, or windy it might be!

Date:

Astronomy

Nov. 03, 2012 Rise Set
Actual Time 7:41 AM EDT 5:44 PM EDT
Civil Twilight 7:10 AM EDT 6:14 PM EDT
Nautical Twilight 6:35 AM EDT 6:49 PM EDT
Astronomical Twilight 6:01 AM EDT 7:23 PM EDT
Moon 9:18 PM EDT (11/3) 11:48 AM EDT (11/3)
Length of Visible Light 11h 04m
Length of Day
10h 03m
Waning Gibbous, 80% of the Moon is Illuminated
Nov 3
Waning Gibbous
Nov 6
Last Quarter
Nov 13
New
Nov 20
First Quarter
Nov 28
Full

Hourly Weather History & Observations

Time (EDT) Temp. Windchill Dew Point Humidity Pressure Visibility Wind Dir Wind Speed Gust Speed Precip Events Conditions
12:53 AM 39.0 °F 32.8 °F 35.1 °F 86% 29.76 in 10.0 mi West 9.2 mph - N/A   Overcast
1:53 AM 39.0 °F 32.3 °F 34.0 °F 82% 29.76 in 10.0 mi West 10.4 mph - N/A   Overcast
2:53 AM 39.0 °F 31.8 °F 34.0 °F 82% 29.78 in 10.0 mi West 11.5 mph - N/A   Overcast
3:53 AM 37.9 °F 31.5 °F 34.0 °F 86% 29.78 in 10.0 mi West 9.2 mph - N/A   Overcast
4:16 AM 37.4 °F 30.8 °F 33.8 °F 87% 29.77 in 10.0 mi West 9.2 mph - N/A   Overcast
4:50 AM 37.4 °F 31.4 °F 33.8 °F 87% 29.77 in 10.0 mi West 8.1 mph - N/A   Overcast
4:53 AM 37.9 °F 30.9 °F 33.1 °F 83% 29.79 in 10.0 mi West 10.4 mph - N/A   Overcast
5:53 AM 37.9 °F 30.5 °F 33.1 °F 83% 29.81 in 10.0 mi West 11.5 mph - N/A   Overcast
6:53 AM 37.0 °F 29.3 °F 33.1 °F 86% 29.82 in 10.0 mi West 11.5 mph - N/A   Overcast
7:53 AM 37.0 °F 29.8 °F 33.1 °F 86% 29.84 in 10.0 mi West 10.4 mph 20.7 mph N/A   Overcast
8:53 AM 37.0 °F 29.3 °F 33.1 °F 86% 29.86 in 10.0 mi West 11.5 mph - N/A   Overcast
9:00 AM 37.4 °F 29.3 °F 33.8 °F 87% 29.84 in 10.0 mi West 12.7 mph - N/A   Overcast
9:17 AM 37.4 °F 30.3 °F 33.8 °F 87% 29.85 in 10.0 mi West 10.4 mph - N/A   Overcast
9:53 AM 37.9 °F 31.5 °F 34.0 °F 86% 29.87 in 10.0 mi West 9.2 mph - N/A   Overcast
10:53 AM 39.0 °F 33.4 °F 34.0 °F 82% 29.88 in 10.0 mi WNW 8.1 mph - N/A   Overcast
11:53 AM 39.9 °F 32.1 °F 32.0 °F 73% 29.88 in 10.0 mi WNW 13.8 mph 20.7 mph N/A   Overcast
12:53 PM 41.0 °F 33.1 °F 33.1 °F 73% 29.87 in 10.0 mi WNW 15.0 mph 19.6 mph N/A   Overcast
1:53 PM 42.1 °F 34.5 °F 34.0 °F 73% 29.87 in 10.0 mi West 15.0 mph - 0.00 in Rain Light Rain
2:00 PM 41.0 °F 32.8 °F 33.8 °F 76% 29.86 in 10.0 mi West 16.1 mph - 0.00 in Rain Light Rain
2:53 PM 41.0 °F 33.9 °F 33.1 °F 73% 29.88 in 10.0 mi West 12.7 mph 19.6 mph 0.00 in   Overcast
3:53 PM 41.0 °F 34.3 °F 33.1 °F 73% 29.90 in 10.0 mi West 11.5 mph - N/A   Overcast
4:53 PM 41.0 °F 34.7 °F 33.1 °F 73% 29.91 in 10.0 mi West 10.4 mph - N/A   Overcast
5:14 PM 41.0 °F 34.7 °F 33.8 °F 76% 29.90 in 10.0 mi West 10.4 mph 18.4 mph N/A   Overcast
5:21 PM 41.0 °F 32.8 °F 32.0 °F 70% 29.90 in 10.0 mi West 16.1 mph 20.7 mph N/A   Overcast
5:28 PM 41.0 °F 33.9 °F 32.0 °F 70% 29.90 in 10.0 mi West 12.7 mph 20.7 mph N/A   Overcast
5:53 PM 41.0 °F 34.3 °F 32.0 °F 70% 29.92 in 10.0 mi West 11.5 mph - N/A   Overcast
6:53 PM 41.0 °F 35.2 °F 32.0 °F 70% 29.94 in 10.0 mi West 9.2 mph 17.3 mph N/A   Overcast
7:53 PM 41.0 °F 32.8 °F 32.0 °F 70% 29.95 in 10.0 mi West 16.1 mph 19.6 mph N/A   Overcast
8:53 PM 39.9 °F 33.4 °F 32.0 °F 73% 29.96 in 10.0 mi West 10.4 mph - N/A   Overcast
9:53 PM 39.0 °F 33.4 °F 32.0 °F 76% 29.97 in 10.0 mi West 8.1 mph - N/A   Overcast
10:53 PM 39.0 °F 32.8 °F 30.9 °F 73% 29.98 in 10.0 mi West 9.2 mph - N/A   Overcast
11:53 PM 37.4 °F 31.4 °F 30.2 °F 75% 29.97 in 10.0 mi West 8.1 mph - N/A   Overcast